Tracking 25963 objects as of 12-Aug-2022
HD Live streaming from Space Station
objects crossing your sky now

STARLINK-4348

Track STARLINK-4348 now!
10-day predictions
STARLINK-4348 is classified as:


NORAD ID: 53075
Int'l Code: 2022-077AJ
Perigee: 455.9 km
Apogee: 458.1 km
Inclination: 97.7 °
Period: 93.6 minutes
Semi major axis: 6827 km
RCS: Unknown
Launch date: July 11, 2022
Source: United States (US)
Launch site: AIR FORCE WESTERN TEST RANGE (AFWTR)
aabbcc
Your satellite tracking list
Your tracking list is empty




NASA's NSSDC Master Catalog

Two Line Element Set (TLE):
1 53075U 22077AJ  22224.58334491 -.01214629  00000-0 -34973-1 0  9991
2 53075  97.6553  44.6488 0001621  90.9313 247.6034 15.38741751  1308
Source of the keplerian elements: AFSPC